Flag for Mongolia Weather past 2 weeks in Ulaanbaatar, Mongolia

Now
77 °F

Passing clouds.


Feels Like: 78 °F
Forecast: 52 / 81 °F
Wind: 10 mph from Northwest

Location: Ulan-Bator

Current Time: Jul 28, 2014 at 4:40:47 PM

Latest Report: Jul 28, 2014 at 4:00 PM


Visibility: N/A

Pressure: 29.68 "Hg

Humidity: 34%

Dew point: 46 °F

Location of UlaanbaatarLocation

Historic Weather in Ulaanbaatar — Graph

°F

Ulaanbaatar temperature yesterday

Maximum temperature yesterday: 73 °F (at 2:30 PM)
Minimum temperature yesterday: 48 °F (at 5:30 AM)
Average temperature yesterday: 62 °F

Past Weeks' High & Low Weather Summary

 TemperatureHumidityPressure
High90 °F (Jul 25, 4:30 PM)100% (Jul 20, 2:00 AM)30.01 "Hg (Jul 20, 2:00 AM)
Low43 °F (Jul 21, 3:30 AM)23% (Jul 23, 6:00 PM)29.62 "Hg (Jul 17, 3:30 PM)
Average64 °F66%29.83 "Hg
* Reported Jul 13 3:00 PM — Jul 28 3:30 PM, Ulaanbaatar, Weather by CustomWeather, © 2014

Note: Actual official high and low records may vary slightly from our data, if they occured in-between our weather recording intervals... More about our weather records

Advertising

Ulaanbaatar weather history for previous 24 hours

 ConditionsComfort  
Time TempWeatherWind HumidityBarometerVisibility
3:30 PM
Jul 28
75 °FPassing clouds.13 mph34%29.68 "HgN/A
3:00 PM77 °FPassing clouds.6 mph32%29.71 "HgN/A
2:30 PM75 °FPassing clouds.3 mph41%29.71 "HgN/A
2:00 PM73 °FPassing clouds.6 mph41%29.74 "HgN/A
1:30 PM73 °FPassing clouds.1 mph41%29.74 "HgN/A
1:00 PM73 °FPassing clouds.3 mph38%29.74 "HgN/A
12:30 PM73 °FPassing clouds.1 mph38%29.74 "HgN/A
12:00 PM72 °FPassing clouds.1 mph47%29.74 "HgN/A
11:30 AM70 °FPassing clouds.1 mph50%29.77 "HgN/A
11:00 AM68 °FPassing clouds.3 mph49%29.77 "HgN/A
10:30 AM66 °FPassing clouds.1 mph60%29.77 "HgN/A
10:00 AM66 °FPassing clouds.1 mph52%29.77 "HgN/A
9:30 AM64 °FPassing clouds.3 mph60%29.77 "HgN/A
9:00 AM63 °FPassing clouds.1 mph64%29.77 "HgN/A
8:30 AM61 °FPassing clouds.1 mph68%29.77 "HgN/A
8:00 AM59 °FPassing clouds.3 mph72%29.77 "HgN/A
7:30 AM57 °FPassing clouds.3 mph77%29.77 "HgN/A
7:00 AM54 °FPassing clouds.1 mph88%29.77 "HgN/A
6:30 AM52 °FPassing clouds.1 mph88%29.77 "HgN/A
6:00 AM52 °FPassing clouds.No wind88%29.77 "HgN/A
5:30 AM52 °FPassing clouds.1 mph82%29.77 "HgN/A
5:00 AM54 °FPassing clouds.3 mph88%29.77 "HgN/A
4:30 AM54 °FPassing clouds.No wind88%29.77 "HgN/A
4:00 AM57 °FPassing clouds.1 mph77%29.77 "HgN/A
3:30 AM57 °FPassing clouds.3 mph77%29.80 "HgN/A
3:00 AM55 °FPassing clouds.6 mph88%29.80 "HgN/A
2:30 AM57 °FPassing clouds.1 mph82%29.80 "HgN/A
2:00 AM57 °FPassing clouds.3 mph82%29.83 "HgN/A
1:30 AM59 °FPassing clouds.1 mph77%29.80 "HgN/A
1:00 AM61 °FSprinkles. Passing clouds.6 mph68%29.80 "HgN/A
12:30 AMN/AThunderstorms.20 mphN/AN/AN/A
12:00 AM57 °FPassing clouds.1 mph88%29.80 "HgN/A
11:30 PM
Jul 27
57 °FPassing clouds.1 mph82%29.80 "HgN/A
11:00 PM61 °FPassing clouds.No wind72%29.77 "HgN/A
10:30 PM59 °FPassing clouds.1 mph77%29.77 "HgN/A
10:00 PM57 °FPassing clouds.1 mph88%29.77 "HgN/A
9:30 PM59 °FPassing clouds.6 mph82%29.77 "HgN/A
9:00 PM63 °FPassing clouds.1 mph77%29.77 "HgN/A
8:30 PM66 °FScattered clouds.1 mph68%29.77 "HgN/A
8:00 PM68 °FScattered clouds.3 mph60%29.77 "HgN/A
7:30 PM70 °FScattered clouds.6 mph53%29.77 "HgN/A
7:00 PM73 °FPassing clouds.3 mph44%29.77 "HgN/A
6:30 PM73 °FPassing clouds.8 mph44%29.77 "HgN/A
6:00 PM73 °FPassing clouds.8 mph47%29.77 "HgN/A
5:30 PM73 °FPassing clouds.8 mph41%29.77 "HgN/A
5:00 PM73 °FPassing clouds.10 mph44%29.80 "HgN/A
4:30 PM73 °FPassing clouds.8 mph44%29.80 "HgN/A
4:00 PM73 °FPassing clouds.8 mph41%29.80 "HgN/A
Weather by CustomWeather, © 2014

See weather overviewHow to use our weather pages